Regional Weather Roundup
Issued by NWS

Home | Current Version | Previous Version | Graphics & Text | Print | Product List | Glossary On
Versions: 1 2 3 4 5 6 7 8 9 10 11 12 13 14 15 16 17 18 19 20 21 22 23 24 25 26 27 28 29 30 31 32 33 34 35 36 37 38 39 40 41 42 43 44 45 46 47 48 49 50
000
ASUS43 KDTX 200901
RWRMI
MICHIGAN HOURLY REGIONAL WEATHER ROUNDUP
NATIONAL WEATHER SERVICE DETROIT/PONTIAC MI
500 AM EDT FRI APR 20 2018

NOTE: "FAIR" INDICATES FEW OR NO CLOUDS BELOW 12,000 FEET WITH NO
SIGNIFICANT WEATHER AND/OR OBSTRUCTION TO VISIBILITY.

MIZ047>049-052>055-059>063-066>070-074>076-081>083-201000-
SOUTHEAST LOWER MICHIGAN

CITY           SKY/WX    TMP DP  RH WIND       PRES   REMARKS
ADRIAN         FAIR      34  18  52 N5        30.40R WCI  30
ANN ARBOR      FAIR      33  19  56 NW6       30.38R WCI  28
BAD AXE        FAIR      31  22  67 CALM      30.37R
CARO           FAIR      26  22  84 CALM      30.38R
DETROIT CITY   FAIR      35  20  54 NW3       30.38R
DETROIT        FAIR      33  20  58 NW6       30.38R WCI  28
FLINT          FAIR      30  21  69 NW7       30.39R WCI  23
GROSSE ILE     FAIR      32  24  71 NW5       30.37R WCI  28
HILLSDALE      FAIR      30  19  64 CALM      30.38R
HOWELL         FAIR      31  19  60 CALM      30.38R

CITY           SKY/WX    TMP DP  RH WIND       PRES   REMARKS
JACKSON        FAIR      28  20  71 W5        30.39R WCI  23
LAMBERTVILLE   FAIR      31  24  72 CALM      30.39R
LANSING        FAIR      32  18  56 W5        30.40R WCI  27
LAPEER         NOT AVBL
MASON          FAIR      34  14  44 NW3       30.40R
MT. CLEMENS    FAIR      33  22  62 NW6         N/A  WCI  28
PONTIAC        FAIR      32  20  61 NW8       30.36R WCI  25
PORT HOPE        N/A     35  28  75 NW9       30.35R WCI  28
PORT HURON     FAIR      30  21  69 CALM      30.37R
TRI CITIES     FAIR      31  19  61 NW8       30.40R WCI  23
MIDLAND        NOT AVBL
TROY           FAIR      36  20  52 NW5       30.39R WCI  32
SAGINAW HB     FAIR      32  21  64 NW3       30.39R
$$
MIZ043>046-050>051-056>058-064>065-071>073-077>080-201000-
SOUTHWEST LOWER MICHIGAN

CITY           SKY/WX    TMP DP  RH WIND       PRES   REMARKS
BATTLE CREEK   FAIR      30  19  63 W6        30.42R WCI  24
BENTON HARBOR  FAIR      26  22  84 CALM      30.45R
BIG RAPIDS     FAIR      28  19  71 CALM      30.41R
COLDWATER      FAIR      29  22  75 W5        30.41R WCI  24
HOLLAND        FAIR      28  24  85 W3        30.44R
GRAND RAPIDS   FAIR      34  19  54 NW6       30.42R WCI  29
IONIA          FAIR      32  19  58 W7        30.41R WCI  26
KALAMAZOO      FAIR      33  17  51 N5        30.42R WCI  29
LUDINGTON      FAIR      24  23  95 CALM      30.43R
MARSHALL       FAIR      27  18  69 W3        30.40S
MOUNT PLEASANT FAIR      34  19  55 CALM      30.40R
MUSKEGON       FAIR      26  21  81 CALM      30.44R
SOUTH HAVEN    FAIR      26  24  92 CALM      30.44R
$$
MIZ016>042-201000-
NORTHERN LOWER MICHIGAN

CITY           SKY/WX    TMP DP  RH WIND       PRES   REMARKS
ALPENA         FAIR      27  20  75 CALM      30.39R
BEAVER ISLAND  FAIR      26  22  85 CALM      30.41S
BELLAIRE       FAIR      22  20  93 CALM      30.43R
CADILLAC       FAIR      25  16  70 CALM      30.38R
CHARLEVOIX     FAIR      25  20  84 CALM      30.44R
FRANKFORT      FAIR      26  22  87 CALM      30.43S
GAYLORD        FAIR      24  17  74 CALM      30.37S
GRAYLING       FAIR      21  18  89 CALM      30.38R
HARBOR SPRINGS FAIR      28  23  81 CALM      30.40R
HOUGHTON LAKE  FAIR      27  16  63 N3        30.38S
MANISTEE       FAIR      23  21  92 E3        30.43R
OSCODA         FAIR      28  17  63 NW6       30.38R WCI  22
PELLSTON       FAIR      21  18  88 CALM      30.40R
ROGERS CITY    FAIR      29  24  82 W3        30.40R
TRAVERSE CITY  FAIR      25  20  81 CALM      30.41R
$$
MIZ007>008-015-201000-
EASTERN UPPER MICHIGAN

CITY           SKY/WX    TMP DP  RH WIND       PRES   REMARKS
KINROSS        FAIR      25  24  96 NW3       30.39R
MACKINAC ISLAN FAIR      28  22  78 NW5       30.39S WCI  23
NEWBERRY       FAIR      31  24  74 NW6       30.39R WCI  26
S. S. MARIE    FAIR      27  24  89 CALM      30.39R
MUNISING         N/A     23  18  81 S7        30.40S WCI  15
$$
MIZ004>006-011>014-085-201000-
CENTRAL UPPER MICHIGAN

CITY           SKY/WX    TMP DP  RH WIND       PRES   REMARKS
MANISTIQUE     FAIR      24  17  74 N3        30.41R
ESCANABA       FAIR      24  16  71 W5        30.43R WCI  18
$$
MIZ001>003-009>011-084-201000-
WESTERN UPPER MICHIGAN

CITY           SKY/WX    TMP DP  RH WIND       PRES   REMARKS
IRON MOUNTAIN  FAIR      23  15  71 N3        30.40R
HOUGHTON       FAIR      35   9  33 NW10      30.38R WCI  27
COPPER HARBOR    N/A     33  13  43 W5        30.38R WCI  29
IRONWOOD       FAIR      20  16  84 CALM      30.42R
$$

ABBREVIATIONS USED IN REMARKS
   TC - TEMPERATURE IN CELSIUS
  WCI - WIND CHILL INDEX
   HX - HEAT INDEX
  VSB - VISIBILITY





USA.gov is the U.S. government's official web portal to all federal, state and local government web resources and services.